Miscellaneous Local Product
Issued by NWS Hastings, NE

Home | Current Version | Previous Version | Graphics & Text | Print | Product List | Glossary On
Versions: 1 2 3 4 5 6 7 8 9 10 11 12 13 14 15 16 17 18 19 20 21 22 23 24 25 26 27 28 29 30 31 32 33 34 35 36 37 38 39 40 41 42 43 44 45 46 47 48 49 50
708
AXUS43 KGID 250502
MISGRI

GID CWA HOURLY WEATHER ROUNDUP
NATIONAL WEATHER SERVICE HASTINGS NE
1200 AM CDT SUN SEP 25 2016

NOTE: "FAIR" INDICATES FEW OR NO CLOUDS BELOW 12,000 FEET WITH NO
SIGNIFICANT WEATHER AND/OR OBSTRUCTIONS TO VISIBILITY.

...SOUTH CENTRAL NEBRASKA...

CITY           SKY/WX    TMP DP  RH WIND       PRES   REMARKS
GRAND ISLAND   CLEAR     60  58  92 W7        29.99R
HASTINGS       CLEAR     61  59  93 CALM      30.00S
KEARNEY        CLEAR     57  46  67 NW9       30.01R
ORD            CLEAR     57  43  59 NW16      30.02R
YORK           CLOUDY    68  66  94 SW3       29.98S
AURORA         PTCLDY    64  64 100 SW5       29.98F
LEXINGTON      CLEAR     55  44  65 NW9       30.08R
HOLDREGE       CLEAR     57  48  72 NW7       30.03R
HEBRON         HVY RAIN  69  67  95 SW7       29.99R

...NEBRASKA PANHANDLE...

CITY           SKY/WX    TMP DP  RH WIND       PRES   REMARKS
CHADRON        CLOUDY    54  40  59 W21G37    30.17R
ALLIANCE       CLEAR     48  41  76 W14       30.19R
SCOTTSBLUFF    CLEAR     45  41  86 W6        30.24R
SIDNEY         CLOUDY    49  41  74 NW9       30.24R

...WESTERN AND NORTH CENTRAL NEBRASKA...

CITY           SKY/WX    TMP DP  RH WIND       PRES   REMARKS
VALENTINE      CLEAR     55  39  54 W22G28    30.05R
AINSWORTH      CLEAR     55  42  61 W10       30.06R
ONEILL         PTCLDY    60  42  51 W15       30.02R
BROKEN BOW     CLEAR     58  42  55 NW16G29   30.07R
IMPERIAL       CLEAR     57  40  52 N15       30.16R
NORTH PLATTE   CLEAR     55  42  61 NW8       30.12R
MCCOOK         CLEAR     60  41  49 N18       30.09R

...EASTERN NEBRASKA...

CITY           SKY/WX    TMP DP  RH WIND       PRES   REMARKS
NORFOLK        CLOUDY    66  64  93 SW8       29.97R
SO SIOUX CITY  TSTM      71  70  96 SW10      29.95S VSB 1
TEKAMAH        LGT RAIN  70  68  93 SE8       29.97R
COLUMBUS       CLOUDY   N/A N/A N/A CALM      29.96F
ALBION         PTCLDY    59  58  96 CALM      29.99S
OMAHA EPPLEY   CLOUDY    70  66  87 SE7       29.96F
OFFUTT AFB     LGT RAIN  68  68 100 SE9       29.95F
MILLARD        CLOUDY    70  68  93 SE6       29.96F
LINCOLN        CLOUDY    70  68  93 S6        29.96F
NEBRASKA CITY  TSTM      68  65  92 S9        29.96F
BEATRICE       CLOUDY    69  68  98 S8        29.97S
FALLS CITY     RAIN      70  70 100 SE3       29.96F

...NORTHERN KANSAS...

CITY           SKY/WX    TMP DP  RH WIND       PRES   REMARKS
GOODLAND       CLOUDY    58  41  53 N15       30.16R
HILL CITY      CLOUDY    56  52  86 CALM      30.04R
NORTON         CLEAR     54  41  62 CALM      30.04R
PHILLIPSBURG   CLEAR     57  55  94 W6        30.01S
SMITH CENTER   CLEAR     61  61 100 CALM      30.01R
HAYS           CLOUDY    64  55  72 CALM      30.02R
CONCORDIA      CLOUDY    68  68 100 SW6       30.00R
SALINA         CLOUDY    69  67  93 S7        30.00R
TOPEKA         LGT RAIN  68  67  96 E8        29.99S



USA.gov is the U.S. government's official web portal to all federal, state and local government web resources and services.